GW2094 Weather Reports


Display with metric or nautical units.
time (UTC)temp
F
wind
direction
speed
MPH
gust
MPH
rain 1hr
in
rain 24hr
in
rain mn
in
humidity
%
barometer
mb
20260507073646 65 0.0 0.0 0.00 0.00 0.00 5 1016.3
20260507072539 65 0.0 0.0 0.00 0.00 0.00 5 1016.2
20260507071432 64 0.0 0.0 0.00 0.00 0.00 5 1016.3
20260507070326 64 0.0 0.0 0.00 0.00 0.00 5 1016.2
20260507065218 63 0.0 0.0 0.00 0.00 0.00 5 1016.2
20260507064112 64 0.0 0.0 0.00 0.00 0.00 5 1016.1
20260507063005 63 0.0 0.0 0.00 0.00 0.00 5 1016.0
20260507060754 61 0.0 0.0 0.00 0.00 0.00 5 1016.1
20260507055647 60 0.0 0.0 0.00 0.00 0.00 5 1016.1
20260507054540 59 0.0 0.0 0.00 0.00 0.00 5 1016.2
20260507053433 59 0.0 0.0 0.00 0.00 0.00 5 1016.0
20260507052326 58 0.0 0.0 0.00 0.00 0.00 5 1016.0
20260507051219 57 0.0 0.0 0.00 0.00 0.00 5 1016.1
20260507050111 56 0.0 0.0 0.00 0.00 0.00 5 1016.1
20260507045005 55 0.0 0.0 0.00 0.00 0.00 5 1016.2
20260507043857 55 0.0 0.0 0.00 0.00 0.00 5 1016.2
20260507042750 55 0.0 0.0 0.00 0.00 0.00 5 1016.1
20260507041644 54 0.0 0.0 0.00 0.00 0.00 5 1016.0
20260507040536 54 0.0 0.0 0.00 0.00 0.00 5 1016.0
20260507035429 54 0.0 0.0 0.00 0.00 0.00 5 1016.0
20260507034322 54 0.0 0.0 0.00 0.00 0.00 5 1015.8
20260507033216 53 0.0 0.0 0.00 0.00 0.00 5 1015.8
20260507031005 53 0.0 0.0 0.00 0.00 0.00 5 1015.7
20260507025858 53 0.0 0.0 0.00 0.00 0.00 5 1015.8
20260507024750 53 0.0 0.0 0.00 0.00 0.00 5 1015.7
20260507023643 53 0.0 0.0 0.00 0.00 0.00 5 1015.7
20260507022536 54 0.0 0.0 0.00 0.00 0.00 5 1015.7
20260507021429 54 0.0 0.0 0.00 0.00 0.00 5 1015.5
20260507020322 54 0.0 0.0 0.00 0.00 0.00 5 1015.5
20260507015216 54 0.0 0.0 0.00 0.00 0.00 5 1015.7
20260507014108 54 0.0 0.0 0.00 0.00 0.00 5 1015.8
20260507013001 54 0.0 0.0 0.00 0.00 0.00 5 1015.8
20260507011854 54 0.0 0.0 0.00 0.00 0.00 5 1015.9
20260507010748 55 0.0 0.0 0.00 0.00 0.00 5 1015.9
20260507005640 55 0.0 0.0 0.00 0.00 0.00 5 1015.8
20260507004534 55 0.0 0.0 0.00 0.00 0.00 5 1015.7
20260507003427 55 0.0 0.0 0.00 0.00 0.00 5 1015.7
20260507002320 56 0.0 0.0 0.00 0.00 0.00 5 1015.7
20260506235006 56 0.0 0.0 0.00 0.00 0.00 5 1015.8
20260506233900 57 0.0 0.0 0.00 0.00 0.00 5 1015.9
20260506232753 57 0.0 0.0 0.00 0.00 0.00 5 1015.9
20260506230542 57 0.0 0.0 0.00 0.00 0.00 5 1016.0
20260506224332 58 0.0 0.0 0.00 0.00 0.00 5 1016.1
20260506223225 58 0.0 0.0 0.00 0.00 0.00 5 1016.0
20260506222119 58 0.0 0.0 0.00 0.00 0.00 5 1016.0
20260506221011 59 0.0 0.0 0.00 0.00 0.00 5 1015.9
20260506214800 60 0.0 0.0 0.00 0.00 0.00 5 1015.9
20260506213653 60 0.0 0.0 0.00 0.00 0.00 5 1016.0
20260506212546 60 0.0 0.0 0.00 0.00 0.00 5 1015.9
20260506210335 61 0.0 0.0 0.00 0.00 0.00 5 1015.8
20260506205228 61 0.0 0.0 0.00 0.00 0.00 5 1015.7
20260506203017 62 0.0 0.0 0.00 0.00 0.00 5 1015.5
20260506201910 62 0.0 0.0 0.00 0.00 0.00 5 1015.4
20260506200803 62 0.0 0.0 0.00 0.00 0.00 5 1015.4
20260506195656 63 0.0 0.0 0.00 0.00 0.00 5 1015.3
20260506193446 63 0.0 0.0 0.00 0.00 0.00 5 1015.2
20260506192338 63 0.0 0.0 0.00 0.00 0.00 5 1015.2
20260506191232 63 0.0 0.0 0.00 0.00 0.00 5 1015.3
20260506190125 64 0.0 0.0 0.00 0.00 0.00 5 1015.1
20260506185018 64 0.0 0.0 0.00 0.00 0.00 5 1014.9
20260506183910 65 0.0 0.0 0.00 0.00 0.00 5 1014.7
20260506182803 65 0.0 0.0 0.00 0.00 0.00 5 1014.6
20260506181656 66 0.0 0.0 0.00 0.00 0.00 5 1014.5
20260506180550 66 0.0 0.0 0.00 0.00 0.00 5 1014.2
20260506174339 68 0.0 0.0 0.00 0.00 0.00 5 1014.0
20260506173232 68 0.0 0.0 0.00 0.00 0.00 5 1013.8
20260506171021 69 0.0 0.0 0.00 0.00 0.00 5 1013.6
20260506165915 70 0.0 0.0 0.00 0.00 0.00 5 1013.5
20260506164807 71 0.0 0.0 0.00 0.00 0.00 5 1013.6
20260506163700 71 0.0 0.0 0.00 0.00 0.00 27 1013.5
20260506162554 72 0.0 0.0 0.00 0.00 0.00 25 1013.5
20260506161447 73 0.0 0.0 0.00 0.00 0.00 22 1013.4
20260506160339 73 0.0 0.0 0.00 0.00 0.00 21 1013.4
20260506153025 74 0.0 0.0 0.00 0.00 0.00 21 1013.5
20260506151917 74 0.0 0.0 0.00 0.00 0.00 23 1013.5
20260506150811 74 0.0 0.0 0.00 0.00 0.00 21 1013.7
20260506145704 74 0.0 0.0 0.00 0.00 0.00 21 1013.7
20260506144557 74 0.0 0.0 0.00 0.00 0.00 21 1013.6
20260506143449 74 0.0 0.0 0.00 0.00 0.00 20 1013.6
20260506142343 74 0.0 0.0 0.00 0.00 0.00 22 1013.6
20260506141236 74 0.0 0.0 0.00 0.00 0.00 19 1013.6
20260506140129 75 0.0 0.0 0.00 0.00 0.00 19 1013.6
20260506135022 75 0.0 0.0 0.00 0.00 0.00 22 1013.8
20260506133915 74 0.0 0.0 0.00 0.00 0.00 19 1013.8
20260506131704 75 0.0 0.0 0.00 0.00 0.00 17 1013.9
20260506130557 75 0.0 0.0 0.00 0.00 0.00 18 1013.9
20260506125451 75 0.0 0.0 0.00 0.00 0.00 17 1014.0
20260506123240 76 0.0 0.0 0.00 0.00 0.00 15 1014.1
20260506122133 76 0.0 0.0 0.00 0.00 0.00 16 1014.1
20260506121026 77 0.0 0.0 0.00 0.00 0.00 17 1014.2
20260506115919 78 0.0 0.0 0.00 0.00 0.00 17 1014.3
20260506114812 79 0.0 0.0 0.00 0.00 0.00 10 1014.4
20260506113705 83 0.0 0.0 0.00 0.00 0.00 9 1014.4
20260506112559 83 0.0 0.0 0.00 0.00 0.00 10 1014.5
20260506111451 81 0.0 0.0 0.00 0.00 0.00 13 1014.5
20260506110345 81 0.0 0.0 0.00 0.00 0.00 14 1014.5
20260506105238 79 0.0 0.0 0.00 0.00 0.00 18 1014.6
20260506104131 80 0.0 0.0 0.00 0.00 0.00 18 1014.6
20260506103025 82 0.0 0.0 0.00 0.00 0.00 25 1014.8
20260506101918 79 0.0 0.0 0.00 0.00 0.00 5 1014.7
20260506095707 73 0.0 0.0 0.00 0.00 0.00 5 1014.9
20260506094600 73 0.0 0.0 0.00 0.00 0.00 5 1015.0
20260506093453 73 0.0 0.0 0.00 0.00 0.00 5 1015.1
20260506092346 72 0.0 0.0 0.00 0.00 0.00 5 1015.1
20260506091239 72 0.0 0.0 0.00 0.00 0.00 5 1015.2
20260506090131 70 0.0 0.0 0.00 0.00 0.00 5 1015.2
20260506085024 70 0.0 0.0 0.00 0.00 0.00 5 1015.2
20260506082813 69 0.0 0.0 0.00 0.00 0.00 5 1015.1
20260506081706 68 0.0 0.0 0.00 0.00 0.00 5 1015.2
20260506080559 67 0.0 0.0 0.00 0.00 0.00 5 1015.1